Weather in Khosheutovo

Russia / Astrakhan Oblast     47°01′59″N   47°48′32″E
В апреле 2022 года жителям России запретили посещать сайт meteo.paraplan.net по решению Генеральной прокуратуры. Аудитория сайта уменьшилась в 10 раз. Владельцы сайта не видят смысла в поддержке погодного сервера в таких условиях. Сайт будет закрыт в октябре.
temp.,
°C
wind,
m/s
gust,
m/s
humid.,
%
clouds,
%
prec.,
mm/h
press.,
hPa
HPBL,
m
3 october, mon
mon301:00+19se91854100 0.0 1011710
04:00+18se101844100 0.0 1011704
07:00+17se101843100 0.0 1011616
10:00+19se111540100 0.0 1013781
13:00+22sse91131100 0.0 10141297
16:00+21sse8933100 0.0 10151398
19:00+18sse4747100 0.4 1017772
22:00+17sse3646100 0.7 1018400
4 october, tue
tue401:00+17ese3649100 0.1 1018251
04:00+18ese61048100 0.1 1017351
07:00+17ese61147100 0.0 1018449
10:00+18ese81244100 0.0 1018620
13:00+20se91130100 0.0 1019942
16:00+20se81030100 0.0 1018898
19:00+18se510315 0.0 1020298
22:00+15ese4746100 0.0 1021129
5 october, wed
wed501:00+14ese335396 0.0 102140
04:00+16se235699 0.0 102147
07:00+15ese485799 0.0 1021145
10:00+20se574224 0.0 1021511
13:00+24sse463378 0.0 10201381
16:00+26sw343499 0.0 10191854
19:00+20nnw694397 0.0 1021298
22:00+18n3642100 0.0 1020186
6 october, thu
thu601:00+17nw5853100 0.0 1021250
04:00+15n5866100 3.3 1020312
07:00+14wnw2390100 3.8 1023150
10:00+17wnw567712 3.9 1022624
13:00+21wnw67457 0.0 10221444
16:00+21wnw67310 0.0 10221884
19:00+16wnw48464 0.0 1023184
22:00+15nw59550 0.0 1024282
7 october, fri
fri701:00+13nw36592 0.0 1025124
04:00+12nw33580 0.0 102555
07:00+11nw23605 0.0 102627
10:00+15w23465 0.0 1026489
13:00+18w44404 0.0 10251170
16:00+19wnw343614 0.0 10241289
19:00+16w12465 0.0 102511
22:00+15w23495 0.0 102519